Location: Roland
(31.1349°N, 85.4372°W)
Time: 19:00:54
(UTC+00:00)

SR - Pass Details

Date: 16 April 2021
Orbit: 573 x 882 km, 66.7° (Epoch: 13 May)

Event Time Altitude Azimuth Distance (km) Brightness Sun altitude
Rises 21:48:56 0° 353° (N) 3,452 ? 29.4°
Reaches altitude 10° 21:52:36 10° 15° (NNE) 2,474 ? 28.6°
Maximum altitude 21:55:52 15° 50° (NE) 2,072 ? 27.9°
Drops below altitude 10° 21:59:01 10° 86° (E) 2,372 ? 27.2°
Sets 22:02:24 0° 108° (ESE) 3,233 ? 26.5°
